Regional Weather Roundup
Issued by NWS

Home | Current Version | Previous Version | Graphics & Text | Print | Product List | Glossary On
Versions: 1 2 3 4 5 6 7 8 9 10 11 12 13 14 15 16 17 18 19 20 21 22 23 24 25 26 27 28 29 30 31 32 33 34 35 36 37 38 39 40 41 42 43 44 45 46 47 48 49 50
746
ASUS43 KLOT 281803
RWRIL

ILLINOIS REGIONAL WEATHER ROUNDUP
NATIONAL WEATHER SERVICE CHICAGO/ROMEOVILLE IL
100 PM CDT FRI APR 28 2017

NOTE: "FAIR" INDICATES FEW OR NO CLOUDS BELOW 12,000 FEET WITH NO
SIGNIFICANT WEATHER AND/OR OBSTRUCTIONS TO VISIBILITY.

* THESE STATIONS ARE NOT UNDER NWS QUALITY CONTROL. THEY ALSO MAY NOT
  REPORT WEATHER SUCH AS PRECIPITATION OR FOG.

ILZ001-002-007-009-015-016-024-281900-
NORTHWEST ILLINOIS

CITY           SKY/WX    TMP DP  RH WIND       PRES   REMARKS
MOLINE         LGT RAIN  45  41  86 E14       29.86F FOG
6HR MIN TEMP:  39; 6HR MAX TEMP:  46; 6HR PCP:  0.10;

STERLING*      LGT RAIN  46  44  93 NE6       29.92F
SAVANNA*       DRIZZLE   45  40  84 NE8       29.92F
$$

ILZ003-004-008-010-011-017-018-281900-
NORTH CENTRAL ILLINOIS

CITY           SKY/WX    TMP DP  RH WIND       PRES   REMARKS
ROCKFORD       LGT RAIN  50  39  66 VRB5      29.95F
6HR MIN TEMP:  39; 6HR MAX TEMP:  51; 6HR PCP: TRACE;

FREEPORT*      LGT RAIN  45  37  74 NE3       29.95F
ROCHELLE*      DRIZZLE   50  45  82 SE5       29.93F
DE KALB*       CLOUDY    53  45  75 SE6       29.93F
$$

ILZ005-006-012>014-019>023-281900-
NORTHEAST ILLINOIS

CITY           SKY/WX    TMP DP  RH WIND       PRES   REMARKS
CHICAGO-OHARE  CLOUDY    58  46  64 SE9       29.93S
6HR MIN TEMP:  41; 6HR MAX TEMP:  58;

CHICAGO-MIDWAY CLOUDY    58  47  66 SE9       29.93F
6HR MIN TEMP:  45; 6HR MAX TEMP:  59;

AURORA         CLOUDY    56  48  74 SE8       29.92F
6HR MIN TEMP:  41; 6HR MAX TEMP:  56;

LANSING*       CLOUDY    55  49  79 SE6       29.93F
WAUKEGAN       CLOUDY    48  38  68 SE7       29.94F
6HR MIN TEMP:  43; 6HR MAX TEMP:  53;

DUPAGE AIRPORT CLOUDY    56  48  74 SE7       29.92F
6HR MIN TEMP:  40; 6HR MAX TEMP:  57;

WHEELING       CLOUDY    54  44  69 E8        29.95S
6HR MIN TEMP:  44; 6HR MAX TEMP:  56;

MORRIS*        CLOUDY    55  48  78 CALM      29.91F
NORTHERLY ISL    N/A     48  42  80 E6          N/A
$$

LMZ740>746-281900-
SOUTHERN LAKE MICHIGAN

STATION/POSITION SKY/WX   TEMP    WIND        PRES    VSBY  WAVE
                          AIR SEA DIR/SP/G                  HT/PER
                          (F)     (DEG/KT/KT) (MB)    (MI)  (FT/S)
SOUTHERN BUOY              43 42  110/  2/  4 1015.3          1
HARRISON CRIB              47     100/  8/  8   N/A
BURNHAM HARBOR             47      90/  6/  7   N/A
CALUMET HARBOR             47      60/  6/  7 1013.9R
BURNS HARBOR               56     190/ 13/ 17 1014.6F
MICHIGAN CITY              56     170/ 10/ 12   N/A
MICHIGAN CITY 6N           53 46                N/A           1
ST. JOSEPH                 48 48   30/  4/  4 1015.2F         1
$$

ILZ025>027-034>036-040-047-049-050-058-095>099-281900-
WEST-CENTRAL ILLINOIS

CITY           SKY/WX    TMP DP  RH WIND       PRES   REMARKS
QUINCY         LGT RAIN  55  54  96 SE18G29   29.73F
GALESBURG*     LGT RAIN  48  47  95 NE12      29.83F
MACOMB*        LGT RAIN  54  53  98 SE10      29.83F
JACKSONVILLE*  LGT RAIN  55  53  92 SE8       29.82F
PITTSFIELD*    LGT RAIN  55  54  97 SE8       29.80F
$$

ILZ028>032-037-038-041>044-048-051>054-059>061-281900-
CENTRAL ILLINOIS

CITY           SKY/WX    TMP DP  RH WIND       PRES   REMARKS
PONTIAC        CLOUDY    56  52  86 SE10      29.91S
BLOOMINGTON    LGT RAIN  55  50  83 SE15G22   29.88F
DECATUR        LGT RAIN  55  53  93 SE14      29.87F
PEORIA         LGT RAIN  52  52 100 E7        29.85F FOG
6HR MIN TEMP:  48; 6HR MAX TEMP:  56; 6HR PCP:  0.11;

SPRINGFIELD    LGT RAIN  59  53  80 SE13      29.84F
6HR MIN TEMP:  51; 6HR MAX TEMP:  59; 6HR PCP:  0.02;

TAYLORVILLE    NOT AVBL
$$

ILZ033-039-045-046-055>057-062-063-281900-
EAST-CENTRAL ILLINOIS

CITY           SKY/WX    TMP DP  RH WIND       PRES   REMARKS
CHAMPAIGN      LGT RAIN  55  50  83 SE15      29.89F
MATTOON        CLOUDY    52  51  97 SE12      29.88F
PARIS*         LGT RAIN  52  51  95 E12       29.90F
$$

ILZ079-100>102-281900-
SOUTHWEST ILLINOIS

CITY           SKY/WX    TMP DP  RH WIND       PRES   REMARKS
ALTON          TSTM      54  52  94 E14       29.79F
BELLEVILLE     CLOUDY    58  58  97 NE10      29.77F
CAHOKIA*       CLOUDY    59  53  80 E10       29.76F
$$

ILZ064>066-069>071-074>076-080>082-084>086-088>090-092>094-281900-
SOUTH-CENTRAL ILLINOIS

CITY           SKY/WX    TMP DP  RH WIND       PRES   REMARKS
CARBONDALE     CLOUDY    67  60  78 E13       29.77F
6HR MIN TEMP:  53; 6HR MAX TEMP:  67; 6HR PCP: TRACE;

CAIRO*         CLOUDY    68  62  80 E3        29.79F
EFFINGHAM*     CLOUDY    57  54  89 E8G17     29.89F
MARION         PTSUNNY   68  59  73 SE12      29.81F
MT. VERNON     CLOUDY    62  55  77 E9        29.83F
CENTRALIA*     CLOUDY    63  56  78 E9        29.81F
SALEM*         CLOUDY    62  54  75 E9        29.84F
$$

ILZ067-068-072-073-078-083-087-091-281900-
SOUTHEAST ILLINOIS

CITY           SKY/WX    TMP DP  RH WIND       PRES   REMARKS
LAWRENCEVILLE  CLOUDY    59  52  77 E9        29.91F
FLORA*         CLOUDY    60  54  81 E9        29.86F
FAIRFIELD*     CLOUDY    61  54  78 E5        29.84F
HARRISBURG*    CLOUDY    64  58  81 E7        29.85F
ROBINSON*      CLOUDY    56  51  81 SE9       29.93R
CARMI*         PTSUNNY   65  57  75 SE12      29.86S
$$

ABBREVIATIONS USED IN REMARKS
   TC - TEMPERATURE IN CELSIUS
  WCI - WIND CHILL INDEX
   HX - HEAT INDEX
  VSB - VISIBILITY
$$





USA.gov is the U.S. government's official web portal to all federal, state and local government web resources and services.